Location: Azenweiler
(47.8027°N, 9.4096°E)
Time: 03:08:22
(UTC+00:00)

Cosmos 1626 Rocket - Pass Details

Date: 14 March 2026
Orbit: 596 x 624 km, 82.5° (Epoch: 13 April)

Event Time Altitude Azimuth Distance (km) Brightness Sun altitude
Rises 02:53:36 0° 5° (N) 2,904 7.5 -27.4°
Reaches altitude 10° 02:56:40 10° 27° (NNE) 1,986 6.8 -26.9°
Maximum altitude 02:59:21 16° 65° (ENE) 1,630 6.6 -26.5°
Drops below altitude 10° 03:02:01 10° 103° (ESE) 1,966 6.7 -26.2°
Sets 03:05:01 0° 126° (SE) 2,858 7.3 -25.7°
